TimeEST,TemperatureF,Dew PointF,Humidity,Sea Level PressureIn,VisibilityMPH,Wind Direction,Wind SpeedMPH,Gust SpeedMPH,PrecipitationIn,Events,Conditions,WindDirDegrees,DateUTC
12:53 AM,25.0,21.0,85,30.34,8.0,Calm,Calm,-,N/A,,Clear,0,2012-11-30 05:53:00
1:53 AM,24.1,21.0,88,30.35,8.0,Calm,Calm,-,N/A,,Clear,0,2012-11-30 06:53:00
2:53 AM,24.1,21.0,88,30.35,8.0,Calm,Calm,-,N/A,,Clear,0,2012-11-30 07:53:00
3:53 AM,24.1,19.9,84,30.35,7.0,Calm,Calm,-,N/A,,Clear,0,2012-11-30 08:53:00
4:53 AM,24.1,19.0,81,30.34,9.0,Calm,Calm,-,N/A,,Clear,0,2012-11-30 09:53:00
5:53 AM,23.0,19.9,88,30.36,7.0,Calm,Calm,-,N/A,,Clear,0,2012-11-30 10:53:00
7:53 AM,28.0,24.1,85,30.39,6.0,Calm,Calm,-,N/A,,Overcast,0,2012-11-30 12:53:00
8:53 AM,30.9,27.0,85,30.39,5.0,Calm,Calm,-,N/A,,Scattered Clouds,0,2012-11-30 13:53:00
9:53 AM,37.0,28.0,70,30.38,5.0,Calm,Calm,-,N/A,,Haze,0,2012-11-30 14:53:00
10:53 AM,39.9,28.0,63,30.38,8.0,Calm,Calm,-,N/A,,Clear,0,2012-11-30 15:53:00
11:53 AM,44.1,28.0,53,30.36,9.0,East,5.8,-,N/A,,Clear,90,2012-11-30 16:53:00
12:53 PM,48.0,25.0,41,30.35,10.0,ENE,4.6,-,N/A,,Clear,60,2012-11-30 17:53:00
1:53 PM,50.0,26.1,39,30.33,10.0,NE,5.8,-,N/A,,Clear,40,2012-11-30 18:53:00
2:53 PM,48.9,26.1,41,30.32,10.0,ENE,8.1,-,N/A,,Mostly Cloudy,70,2012-11-30 19:53:00
3:53 PM,46.9,28.0,48,30.32,10.0,East,6.9,-,N/A,,Clear,90,2012-11-30 20:53:00
4:53 PM,43.0,26.1,51,30.34,10.0,ESE,4.6,-,N/A,,Clear,110,2012-11-30 21:53:00
5:53 PM,39.0,27.0,62,30.35,10.0,Calm,Calm,-,N/A,,Clear,0,2012-11-30 22:53:00
6:53 PM,35.1,28.0,76,30.37,10.0,Calm,Calm,-,N/A,,Mostly Cloudy,0,2012-11-30 23:53:00
7:53 PM,39.9,28.0,63,30.36,10.0,ESE,3.5,-,N/A,,Overcast,120,2012-12-01 00:53:00
8:53 PM,35.1,28.0,76,30.38,9.0,Calm,Calm,-,N/A,,Clear,0,2012-12-01 01:53:00
9:53 PM,30.0,26.1,85,30.38,7.0,Calm,Calm,-,N/A,,Partly Cloudy,0,2012-12-01 02:53:00
10:53 PM,30.9,26.1,82,30.39,7.0,Calm,Calm,-,N/A,,Scattered Clouds,0,2012-12-01 03:53:00
11:53 PM,32.0,27.0,82,30.38,8.0,ESE,4.6,-,N/A,,Clear,120,2012-12-01 04:53:00